CW7220 Weather Reports


time (UTC)temp
C
wind
direction
speed
KPH
gust
KPH
rain 1hr
cm
rain 24hr
cm
rain mn
cm
humidity
%
barometer
mb
20260508122926 18 78 9.7 0.0 0.00 0.00 0.00 83 1013.4
20260508121937 18 58 9.7 0.0 0.00 0.00 0.00 83 1013.6
20260508115925 19 105 12.9 0.0 0.00 0.00 0.00 82 1013.2
20260508114918 18 115 11.3 0.0 0.00 0.00 0.00 82 1013.1
20260508113929 19 80 12.9 0.0 0.00 0.00 0.00 82 1013.0
20260508112927 18 67 14.5 0.0 0.00 0.00 0.00 81 1012.9
20260508111919 18 104 12.9 0.0 0.00 0.00 0.00 81 1012.8
20260508110931 18 51 11.3 0.0 0.00 0.00 0.00 81 1012.9
20260508104921 18 68 12.9 0.0 0.00 0.00 0.00 82 1012.9
20260508102927 19 58 8.0 0.0 0.00 0.00 0.00 79 1013.3
20260508101922 19 59 6.4 0.0 0.00 0.00 0.00 78 1013.3
20260508095928 20 59 9.7 0.0 0.00 0.00 0.00 77 1013.0
20260508094920 19 63 9.7 0.0 0.00 0.00 0.00 77 1013.0
20260508093936 18 65 11.3 0.0 0.00 0.00 0.00 78 1012.9
20260508092929 18 62 11.3 0.0 0.00 0.00 0.00 80 1012.8
20260508090936 18 44 12.9 0.0 0.00 0.00 0.00 82 1012.5
20260508085932 18 65 14.5 0.0 0.00 0.00 0.00 83 1012.5
20260508084923 18 42 9.7 0.0 0.00 0.00 0.00 85 1012.6
20260508083936 17 23 9.7 0.0 0.00 0.00 0.00 86 1012.9
20260508082932 17 360 11.3 0.0 0.00 0.00 0.00 87 1012.7
20260508081924 17 16 9.7 0.0 0.00 0.00 0.00 87 1012.9
20260508080936 17 13 11.3 0.0 0.00 0.00 0.00 87 1012.9
20260508075927 17 19 12.9 0.0 0.00 0.00 0.00 88 1012.8
20260508074923 17 12 9.7 0.0 0.00 0.00 0.00 88 1012.7
20260508073937 17 26 9.7 0.0 0.00 0.00 0.00 89 1012.6
20260508072928 17 13 6.4 0.0 0.00 0.00 0.00 89 1012.6
20260508071923 16 12 6.4 0.0 0.00 0.00 0.00 89 1012.6
20260508070934 16 360 8.0 0.0 0.00 0.00 0.00 89 1012.6
20260508062932 16 5 11.3 0.0 0.00 0.00 0.00 90 1012.0
20260508061924 16 24 6.4 0.0 0.00 0.00 0.00 91 1012.2
20260508060937 16 22 6.4 0.0 0.00 0.00 0.00 91 1011.8
20260508054926 15 40 3.2 0.0 0.00 0.00 0.00 91 1011.8
20260508051927 15 40 6.4 0.0 0.00 0.00 0.00 90 1011.5
20260508045919 15 40 6.4 0.0 0.00 0.00 0.00 90 1011.1
20260508044930 15 28 8.0 0.0 0.00 0.00 0.00 90 1011.2
20260508043928 15 360 6.4 0.0 0.00 0.00 0.00 90 1011.2
20260508042919 15 5 8.0 0.0 0.00 0.00 0.00 90 1011.2
20260508041930 15 355 9.7 0.0 0.00 0.00 0.00 91 1011.0
20260508040922 15 11 9.7 0.0 0.00 0.00 0.00 91 1010.8
20260508034932 15 346 11.3 0.0 0.00 0.00 0.00 90 1010.9
20260508033924 15 350 11.3 0.0 0.00 0.00 0.00 90 1011.1
20260508032937 16 5 11.3 0.0 0.00 0.00 0.00 90 1011.2
20260508031933 15 5 11.3 0.0 0.00 0.00 0.00 90 1011.0
20260508030925 15 5 14.5 0.0 0.00 0.00 0.00 90 1010.9
20260508024936 15 19 14.5 0.0 0.00 0.00 0.00 89 1011.0
20260508023928 15 9 14.5 0.0 0.00 0.00 0.00 89 1011.2
20260508022919 15 355 16.1 0.0 0.00 0.00 0.00 88 1011.2
20260508021932 15 30 16.1 0.0 0.00 0.00 0.00 89 1011.1
20260508020929 16 360 14.5 0.0 0.00 0.00 0.00 89 1011.3
20260508015920 15 17 12.9 0.0 0.00 0.00 0.00 89 1011.4
20260508014933 15 9 12.9 0.0 0.00 0.00 0.00 89 1011.5
20260508013929 15 17 14.5 0.0 0.00 0.00 0.00 89 1011.4
20260508011936 15 5 14.5 0.0 0.00 0.00 0.00 89 1011.5
20260508010930 15 12 16.1 0.0 0.00 0.00 0.00 89 1011.5
20260508005925 15 5 12.9 0.0 0.00 0.00 0.00 90 1011.6
20260508004937 15 346 11.3 0.0 0.00 0.00 0.00 90 1011.8
20260508001921 15 15 16.1 0.0 0.00 0.00 0.00 90 1011.6
20260508000931 15 360 16.1 0.0 0.00 0.00 0.00 90 1011.4
20260507235923 15 20 16.1 0.0 0.00 0.00 1.50 90 1011.5
20260507234936 15 11 12.9 0.0 0.00 0.00 1.50 90 1011.4
20260507233932 15 346 14.5 0.0 0.00 0.00 1.50 90 1011.4
20260507232925 15 5 16.1 0.0 0.00 0.00 1.50 90 1011.4
20260507230933 15 40 11.3 0.0 0.00 0.00 1.50 90 1011.4
20260507225928 15 39 14.5 0.0 0.00 0.00 1.50 91 1011.5
20260507224922 15 18 16.1 0.0 0.00 0.00 1.50 91 1011.6
20260507223917 15 336 12.9 0.0 0.00 0.00 1.50 91 1011.9
20260507221925 15 5 11.3 0.0 0.00 0.00 1.50 91 1011.9
20260507220917 14 5 16.1 0.0 0.00 0.00 1.50 91 1012.0
20260507215928 14 355 16.1 0.0 0.00 0.00 1.50 91 1012.0
20260507214925 14 11 17.7 0.0 0.00 0.00 1.50 91 1011.9
20260507213938 14 18 17.7 0.0 0.00 0.00 1.50 90 1012.0
20260507212928 14 13 17.7 0.0 0.00 0.00 1.50 90 1012.1
20260507211925 14 12 14.5 0.0 0.00 0.00 1.50 90 1012.2
20260507210917 14 11 14.5 0.0 0.00 0.00 1.45 90 1012.3
20260507205931 14 355 16.1 0.0 0.00 0.00 1.37 89 1012.3
20260507202918 14 21 19.3 0.0 0.00 0.00 1.09 87 1012.2
20260507201930 14 360 19.3 0.0 0.00 0.00 1.04 87 1012.0
20260507200922 15 5 17.7 0.0 0.00 0.00 0.99 86 1012.2
20260507194931 15 346 16.1 0.0 0.00 0.00 0.89 86 1012.1
20260507193924 15 9 14.5 0.0 0.00 0.00 0.81 86 1012.0
20260507192935 15 314 16.1 0.0 0.00 0.00 0.71 87 1011.8
20260507190928 14 328 19.3 0.0 0.00 0.00 0.58 90 1011.1
20260507190020 15 320 17.7 0.0 0.00 0.00 0.51 90 1011.1
20260507184928 15 355 20.9 0.0 0.00 0.00 0.43 90 1011.1
20260507183924 15 327 19.3 0.0 0.00 0.00 0.33 90 1010.8
20260507182916 15 346 19.3 0.0 0.00 0.00 0.23 90 1010.7
20260507181928 15 5 17.7 0.0 0.00 0.00 0.15 90 1010.6
20260507175935 15 360 19.3 0.0 0.00 0.00 0.10 89 1010.4
20260507174928 15 355 12.9 0.0 0.00 0.00 0.08 88 1010.5
20260507173921 16 9 12.9 0.0 0.00 0.00 0.05 87 1010.5
20260507171930 16 9 17.7 0.0 0.00 0.00 0.00 84 1010.3
20260507170924 16 360 19.3 0.0 0.00 0.00 0.00 84 1010.1
20260507163930 16 30 16.1 0.0 0.00 0.00 0.00 87 1009.8
20260507162921 16 45 17.7 0.0 0.00 0.00 0.00 87 1009.7
20260507161934 17 33 17.7 0.0 0.00 0.00 0.00 87 1009.7
20260507154934 17 19 17.7 0.0 0.00 0.00 0.00 87 1009.5
20260507153927 17 54 14.5 0.0 0.00 0.00 0.00 87 1009.5
20260507152921 17 74 17.7 0.0 0.00 0.00 0.00 86 1009.7
20260507151933 17 53 16.1 0.0 0.00 0.00 0.00 87 1009.6
20260507150924 17 58 14.5 0.0 0.00 0.00 0.00 87 1009.8
20260507145935 17 74 16.1 0.0 0.00 0.00 0.00 86 1009.8
20260507144932 17 57 14.5 0.0 0.00 0.00 0.00 85 1009.9
20260507143923 17 59 12.9 0.0 0.00 0.00 0.00 84 1010.0
20260507142935 17 62 9.7 0.0 0.00 0.00 0.00 86 1010.1
20260507141927 17 79 14.5 0.0 0.00 0.00 0.00 87 1010.1
20260507140921 17 71 12.9 0.0 0.00 0.00 0.00 87 1010.4
20260507135932 17 71 8.0 0.0 0.00 0.00 0.00 88 1010.6
20260507134923 17 107 11.3 0.0 0.00 0.00 0.00 88 1010.7
20260507130921 17 79 14.5 0.0 0.00 0.00 0.00 86 1011.1
20260507125931 18 67 12.9 0.0 0.00 0.00 0.00 86 1011.3
20260507124927 18 109 12.9 0.0 0.00 0.00 0.00 86 1011.3
20260507123921 18 50 14.5 0.0 0.00 0.00 0.00 85 1011.3